{"data":{"norad_id":56362,"epoch":"2026-05-24T23:07:38.546112Z","epoch_age_seconds":88405,"freshness":"FRESH","line1":"1 56362U 23058AX  26144.96364058  .00000186  00000+0  16978-4 0  9997","line2":"2 56362  97.4489 146.0358 0002054  76.4274 283.7181 15.05654990169676","mean_motion":15.0565499,"eccentricity":0.0002054,"inclination_deg":97.4489,"raan_deg":146.0358,"arg_perigee_deg":76.4274,"mean_anomaly_deg":283.7181,"bstar":1.6978e-5,"rev_number":16967,"period_min":95.639439948989,"perigee_km":548.07291196417,"apogee_km":550.91878353803,"semimajor_km":6927.6328477511,"source":"CELESTRAK","updated_at":"2026-05-25T13:38:18.009895Z"}}